Time,TemperatureF,DewpointF,PressureIn,WindDirection,WindDirectionDegrees,WindSpeedMPH,WindSpeedGustMPH,Humidity,HourlyPrecipIn,Conditions,Clouds,dailyrainin,SoftwareType,DateUTC
2013-07-12 00:02:00,72.0,58.0,30.02,ESE,116,0.0,1.0,61,0.00,,,0.00,,2013-07-12 05:02:00,
2013-07-12 00:11:00,72.0,58.0,30.02,ESE,116,0.0,1.0,61,0.00,,,0.00,,2013-07-12 05:11:00,
2013-07-12 00:22:00,72.0,58.0,30.02,East,82,0.0,3.0,61,0.00,,,0.00,,2013-07-12 05:22:00,
2013-07-12 00:32:00,72.0,58.0,30.02,East,82,0.0,3.0,61,0.00,,,0.00,,2013-07-12 05:32:00,
2013-07-12 00:43:00,72.0,58.0,30.02,East,94,0.0,1.0,62,0.00,,,0.00,,2013-07-12 05:43:00,
2013-07-12 00:53:00,71.0,58.0,30.02,East,92,0.0,1.0,63,0.00,,,0.00,,2013-07-12 05:53:00,
2013-07-12 01:01:00,71.0,58.0,30.02,East,92,0.0,1.0,63,0.00,,,0.00,,2013-07-12 06:01:00,
2013-07-12 01:11:00,71.0,58.0,30.03,SE,133,0.0,2.0,64,0.00,,,0.00,,2013-07-12 06:11:00,
2013-07-12 01:22:00,71.0,59.0,30.02,SE,133,0.0,1.0,65,0.00,,,0.00,,2013-07-12 06:22:00,
2013-07-12 01:33:00,71.0,59.0,30.02,SE,133,0.0,1.0,65,0.00,,,0.00,,2013-07-12 06:33:00,
2013-07-12 01:42:00,70.0,58.0,30.02,SE,133,0.0,1.0,66,0.00,,,0.00,,2013-07-12 06:42:00,
2013-07-12 01:52:00,71.0,59.0,30.03,SSE,147,0.0,3.0,67,0.00,,,0.00,,2013-07-12 06:52:00,
2013-07-12 02:02:00,71.0,59.0,30.03,SSE,147,0.0,3.0,67,0.00,,,0.00,,2013-07-12 07:02:00,
2013-07-12 02:12:00,71.0,59.0,30.03,ESE,109,0.0,3.0,67,0.00,,,0.00,,2013-07-12 07:12:00,
2013-07-12 02:22:00,70.0,59.0,30.04,SE,130,0.0,2.0,68,0.00,,,0.00,,2013-07-12 07:22:00,
2013-07-12 02:32:00,70.0,59.0,30.04,SE,130,0.0,2.0,68,0.00,,,0.00,,2013-07-12 07:32:00,
2013-07-12 02:43:00,70.0,59.0,30.03,ESE,107,0.0,3.0,69,0.00,,,0.00,,2013-07-12 07:43:00,
2013-07-12 02:52:00,69.0,59.0,30.03,ESE,103,0.0,3.0,70,0.00,,,0.00,,2013-07-12 07:52:00,
2013-07-12 03:01:00,69.0,59.0,30.03,ESE,103,0.0,3.0,70,0.00,,,0.00,,2013-07-12 08:01:00,
2013-07-12 03:11:00,69.0,59.0,30.03,SSE,150,0.0,1.0,71,0.00,,,0.00,,2013-07-12 08:11:00,
2013-07-12 03:21:00,69.0,60.0,30.03,ESE,119,0.0,5.0,72,0.00,,,0.00,,2013-07-12 08:21:00,
2013-07-12 03:32:00,69.0,60.0,30.03,ESE,119,0.0,5.0,72,0.00,,,0.00,,2013-07-12 08:32:00,
2013-07-12 03:42:00,68.0,59.0,30.03,ESE,107,0.0,4.0,72,0.00,,,0.00,,2013-07-12 08:42:00,
2013-07-12 03:53:00,68.0,59.0,30.03,SE,145,0.0,2.0,73,0.00,,,0.00,,2013-07-12 08:53:00,
2013-07-12 04:02:00,68.0,59.0,30.03,SE,145,0.0,2.0,73,0.00,,,0.00,,2013-07-12 09:02:00,
2013-07-12 04:12:00,68.0,59.0,30.03,ESE,105,0.0,5.0,73,0.00,,,0.00,,2013-07-12 09:12:00,
2013-07-12 04:22:00,68.0,59.0,30.03,SE,133,0.0,2.0,73,0.00,,,0.00,,2013-07-12 09:22:00,
2013-07-12 04:32:00,68.0,59.0,30.03,SE,133,0.0,2.0,73,0.00,,,0.00,,2013-07-12 09:32:00,
2013-07-12 04:43:00,68.0,59.0,30.03,SE,134,0.0,2.0,74,0.00,,,0.00,,2013-07-12 09:43:00,
2013-07-12 04:52:00,67.0,59.0,30.03,SE,141,0.0,5.0,75,0.00,,,0.00,,2013-07-12 09:52:00,
2013-07-12 05:01:00,67.0,59.0,30.03,SE,141,0.0,5.0,75,0.00,,,0.00,,2013-07-12 10:01:00,
2013-07-12 05:11:00,67.0,59.0,30.03,East,95,0.0,2.0,75,0.00,,,0.00,,2013-07-12 10:11:00,
2013-07-12 05:22:00,67.0,59.0,30.03,ESE,119,0.0,6.0,75,0.00,,,0.00,,2013-07-12 10:22:00,
2013-07-12 05:33:00,67.0,59.0,30.03,ESE,119,0.0,6.0,75,0.00,,,0.00,,2013-07-12 10:33:00,
2013-07-12 05:42:00,67.0,59.0,30.04,SE,136,0.0,2.0,75,0.00,,,0.00,,2013-07-12 10:42:00,
2013-07-12 05:52:00,67.0,59.0,30.04,SE,132,0.0,3.0,75,0.00,,,0.00,,2013-07-12 10:52:00,
2013-07-12 06:02:00,67.0,59.0,30.04,SE,132,0.0,3.0,75,0.00,,,0.00,,2013-07-12 11:02:00,
2013-07-12 06:12:00,67.0,59.0,30.04,ESE,106,0.0,7.0,75,0.00,,,0.00,,2013-07-12 11:12:00,
2013-07-12 06:22:00,67.0,59.0,30.05,ESE,114,0.0,7.0,75,0.00,,,0.00,,2013-07-12 11:22:00,
2013-07-12 06:32:00,67.0,59.0,30.05,ESE,114,0.0,7.0,75,0.00,,,0.00,,2013-07-12 11:32:00,
2013-07-12 06:43:00,67.0,59.0,30.05,SE,141,0.0,6.0,75,0.00,,,0.00,,2013-07-12 11:43:00,
2013-07-12 06:52:00,67.0,58.0,30.05,ESE,119,0.0,7.0,74,0.00,,,0.00,,2013-07-12 11:52:00,
2013-07-12 07:02:00,67.0,58.0,30.05,ESE,119,0.0,7.0,74,0.00,,,0.00,,2013-07-12 12:02:00,
2013-07-12 07:11:00,67.0,58.0,30.05,ESE,119,0.0,4.0,73,0.00,,,0.00,,2013-07-12 12:11:00,
2013-07-12 07:22:00,67.0,58.0,30.05,ESE,123,0.0,7.0,73,0.00,,,0.00,,2013-07-12 12:22:00,
2013-07-12 07:32:00,67.0,58.0,30.05,ESE,123,0.0,7.0,73,0.00,,,0.00,,2013-07-12 12:32:00,
2013-07-12 07:43:00,68.0,58.0,30.05,SSE,153,1.0,7.0,71,0.00,,,0.00,,2013-07-12 12:43:00,
2013-07-12 07:52:00,68.0,58.0,30.06,SSE,161,0.0,9.0,71,0.00,,,0.00,,2013-07-12 12:52:00,
2013-07-12 08:01:00,68.0,58.0,30.06,SSE,161,0.0,9.0,71,0.00,,,0.00,,2013-07-12 13:01:00,
2013-07-12 08:12:00,69.0,58.0,30.06,ESE,115,1.0,7.0,69,0.00,,,0.00,,2013-07-12 13:12:00,
2013-07-12 08:22:00,69.0,58.0,30.07,ESE,112,2.0,10.0,68,0.00,,,0.00,,2013-07-12 13:22:00,
2013-07-12 08:32:00,69.0,58.0,30.07,ESE,112,2.0,10.0,68,0.00,,,0.00,,2013-07-12 13:32:00,
2013-07-12 08:43:00,70.0,59.0,30.06,SE,144,0.0,10.0,68,0.00,,,0.00,,2013-07-12 13:43:00,
2013-07-12 08:53:00,70.0,58.0,30.07,ESE,121,0.0,9.0,66,0.00,,,0.00,,2013-07-12 13:53:00,
2013-07-12 09:02:00,70.0,58.0,30.07,ESE,121,0.0,9.0,66,0.00,,,0.00,,2013-07-12 14:02:00,
2013-07-12 09:11:00,71.0,59.0,30.06,SE,133,2.0,11.0,65,0.00,,,0.00,,2013-07-12 14:11:00,
2013-07-12 09:22:00,72.0,59.0,30.07,SE,144,2.0,14.0,64,0.00,,,0.00,,2013-07-12 14:22:00,
2013-07-12 09:32:00,72.0,59.0,30.07,SE,144,2.0,14.0,64,0.00,,,0.00,,2013-07-12 14:32:00,
2013-07-12 09:44:00,73.0,60.0,30.06,ESE,115,2.0,9.0,63,0.00,,,0.00,,2013-07-12 14:44:00,
2013-07-12 09:53:00,74.0,60.0,30.06,ESE,106,1.0,11.0,61,0.00,,,0.00,,2013-07-12 14:53:00,
2013-07-12 10:02:00,74.0,60.0,30.06,ESE,106,1.0,11.0,61,0.00,,,0.00,,2013-07-12 15:02:00,
2013-07-12 10:11:00,75.0,60.0,30.06,ENE,78,1.0,11.0,60,0.00,,,0.00,,2013-07-12 15:11:00,
2013-07-12 10:22:00,76.0,60.0,30.06,SE,133,1.0,8.0,58,0.00,,,0.00,,2013-07-12 15:22:00,
2013-07-12 10:33:00,76.0,60.0,30.06,SE,133,1.0,8.0,58,0.00,,,0.00,,2013-07-12 15:33:00,
2013-07-12 10:43:00,77.0,60.0,30.06,ESE,102,3.0,9.0,56,0.00,,,0.00,,2013-07-12 15:43:00,
2013-07-12 10:52:00,78.0,61.0,30.05,SE,130,2.0,16.0,55,0.00,,,0.00,,2013-07-12 15:52:00,
2013-07-12 11:01:00,78.0,61.0,30.05,SE,130,2.0,16.0,55,0.00,,,0.00,,2013-07-12 16:01:00,
2013-07-12 11:11:00,79.0,61.0,30.05,ESE,121,1.0,10.0,55,0.00,,,0.00,,2013-07-12 16:11:00,
2013-07-12 11:22:00,80.0,62.0,30.05,ESE,108,2.0,8.0,54,0.00,,,0.00,,2013-07-12 16:22:00,
2013-07-12 11:32:00,80.0,62.0,30.05,ESE,108,2.0,8.0,54,0.00,,,0.00,,2013-07-12 16:32:00,
2013-07-12 11:43:00,81.0,63.0,30.05,ESE,111,2.0,8.0,54,0.00,,,0.00,,2013-07-12 16:43:00,
2013-07-12 11:56:00,82.0,64.0,30.05,East,91,0.0,5.0,54,0.00,,,0.00,,2013-07-12 16:56:00,
2013-07-12 12:14:00,83.0,64.0,30.04,ESE,110,0.0,14.0,53,0.00,,,0.00,,2013-07-12 17:14:00,
2013-07-12 12:37:00,84.0,64.0,30.04,ESE,122,1.0,8.0,51,0.00,,,0.00,,2013-07-12 17:37:00,
2013-07-12 12:45:00,84.0,64.0,30.04,ENE,71,1.0,7.0,51,0.00,,,0.00,,2013-07-12 17:45:00,
2013-07-12 12:53:00,84.0,64.0,30.03,ESE,123,3.0,9.0,51,0.00,,,0.00,,2013-07-12 17:53:00,
2013-07-12 13:07:00,84.0,64.0,30.03,ESE,123,3.0,9.0,51,0.00,,,0.00,,2013-07-12 18:07:00,
2013-07-12 13:14:00,84.0,64.0,30.04,SSE,159,1.0,7.0,51,0.00,,,0.00,,2013-07-12 18:14:00,
2013-07-12 13:27:00,85.0,65.0,30.03,NE,55,0.0,13.0,52,0.00,,,0.00,,2013-07-12 18:27:00,
2013-07-12 13:34:00,85.0,65.0,30.03,NE,55,0.0,13.0,52,0.00,,,0.00,,2013-07-12 18:34:00,
2013-07-12 13:48:00,86.0,65.0,30.03,ESE,102,1.0,6.0,49,0.00,,,0.00,,2013-07-12 18:48:00,
2013-07-12 13:55:00,87.0,65.0,30.02,ESE,103,0.0,5.0,49,0.00,,,0.00,,2013-07-12 18:55:00,
2013-07-12 14:15:00,87.0,66.0,30.02,ESE,114,0.0,5.0,50,0.00,,,0.00,,2013-07-12 19:15:00,
2013-07-12 14:23:00,88.0,66.0,30.02,NE,34,0.0,5.0,49,0.00,,,0.00,,2013-07-12 19:23:00,
2013-07-12 14:33:00,88.0,66.0,30.02,NE,34,0.0,5.0,49,0.00,,,0.00,,2013-07-12 19:33:00,
2013-07-12 14:46:00,88.0,65.0,30.02,SSE,162,1.0,8.0,47,0.00,,,0.00,,2013-07-12 19:46:00,
2013-07-12 14:55:00,88.0,66.0,30.01,East,82,2.0,9.0,48,0.00,,,0.00,,2013-07-12 19:55:00,
2013-07-12 15:03:00,88.0,66.0,30.01,East,82,2.0,9.0,48,0.00,,,0.00,,2013-07-12 20:03:00,
2013-07-12 15:13:00,90.0,67.0,30.01,East,84,1.0,6.0,47,0.00,,,0.00,,2013-07-12 20:13:00,
2013-07-12 15:24:00,90.0,68.0,30.01,SE,125,0.0,7.0,48,0.00,,,0.00,,2013-07-12 20:24:00,
2013-07-12 15:33:00,90.0,68.0,30.01,SE,125,0.0,7.0,48,0.00,,,0.00,,2013-07-12 20:33:00,
2013-07-12 15:45:00,90.0,67.0,30.01,SSE,152,2.0,6.0,47,0.00,,,0.00,,2013-07-12 20:45:00,
2013-07-12 15:54:00,90.0,67.0,30.00,SE,125,0.0,7.0,47,0.00,,,0.00,,2013-07-12 20:54:00,
2013-07-12 16:03:00,90.0,67.0,30.00,SE,125,0.0,7.0,47,0.00,,,0.00,,2013-07-12 21:03:00,
2013-07-12 16:15:00,90.0,67.0,30.01,SSE,153,1.0,8.0,47,0.00,,,0.00,,2013-07-12 21:15:00,
2013-07-12 16:25:00,90.0,67.0,30.00,ESE,117,1.0,8.0,47,0.00,,,0.00,,2013-07-12 21:25:00,
2013-07-12 16:35:00,90.0,67.0,30.00,ESE,117,1.0,8.0,47,0.00,,,0.00,,2013-07-12 21:35:00,
2013-07-12 16:46:00,89.0,66.0,30.01,SE,132,3.0,8.0,47,0.00,,,0.00,,2013-07-12 21:46:00,
2013-07-12 16:54:00,88.0,66.0,30.00,ESE,111,1.0,8.0,49,0.00,,,0.00,,2013-07-12 21:54:00,
2013-07-12 17:04:00,88.0,66.0,30.00,ESE,111,1.0,8.0,49,0.00,,,0.00,,2013-07-12 22:04:00,
2013-07-12 17:16:00,89.0,67.0,30.00,East,99,2.0,6.0,48,0.00,,,0.00,,2013-07-12 22:16:00,
2013-07-12 17:23:00,88.0,66.0,30.00,South,179,2.0,9.0,48,0.00,,,0.00,,2013-07-12 22:23:00,
2013-07-12 17:33:00,88.0,66.0,30.00,South,179,2.0,9.0,48,0.00,,,0.00,,2013-07-12 22:33:00,
2013-07-12 17:44:00,88.0,66.0,30.00,ESE,107,1.0,8.0,49,0.00,,,0.00,,2013-07-12 22:44:00,
2013-07-12 17:54:00,88.0,66.0,29.99,SSE,149,1.0,6.0,49,0.00,,,0.00,,2013-07-12 22:54:00,
2013-07-12 18:04:00,88.0,66.0,29.99,SSE,149,1.0,6.0,49,0.00,,,0.00,,2013-07-12 23:04:00,
2013-07-12 18:24:00,87.0,66.0,29.99,ENE,76,2.0,7.0,50,0.00,,,0.00,,2013-07-12 23:24:00,
2013-07-12 18:35:00,87.0,66.0,29.99,ENE,76,2.0,7.0,50,0.00,,,0.00,,2013-07-12 23:35:00,
2013-07-12 18:43:00,86.0,65.0,29.98,ESE,110,1.0,8.0,50,0.00,,,0.00,,2013-07-12 23:43:00,
2013-07-12 18:54:00,86.0,65.0,29.97,ESE,112,1.0,6.0,50,0.00,,,0.00,,2013-07-12 23:54:00,
2013-07-12 19:05:00,86.0,65.0,29.97,ESE,112,1.0,6.0,50,0.00,,,0.00,,2013-07-13 00:05:00,
2013-07-12 19:25:00,85.0,65.0,29.98,East,98,0.0,6.0,51,0.00,,,0.00,,2013-07-13 00:25:00,
2013-07-12 19:33:00,85.0,65.0,29.98,East,98,0.0,6.0,51,0.00,,,0.00,,2013-07-13 00:33:00,
2013-07-12 19:46:00,84.0,64.0,29.98,SE,142,1.0,8.0,51,0.00,,,0.00,,2013-07-13 00:46:00,
2013-07-12 19:54:00,84.0,64.0,29.98,SE,142,1.0,8.0,51,0.00,,,0.00,,2013-07-13 00:54:00,
2013-07-12 20:04:00,83.0,62.0,29.98,ESE,103,0.0,7.0,50,0.00,,,0.00,,2013-07-13 01:04:00,
2013-07-12 20:13:00,83.0,62.0,29.98,ESE,103,0.0,7.0,50,0.00,,,0.00,,2013-07-13 01:13:00,
2013-07-12 20:24:00,83.0,63.0,29.98,SE,132,0.0,5.0,51,0.00,,,0.00,,2013-07-13 01:24:00,
2013-07-12 20:37:00,83.0,63.0,29.98,SE,132,0.0,5.0,51,0.00,,,0.00,,2013-07-13 01:37:00,
2013-07-12 20:47:00,82.0,62.0,29.99,SE,136,0.0,5.0,51,0.00,,,0.00,,2013-07-13 01:47:00,
2013-07-12 20:56:00,81.0,61.0,29.99,ESE,117,0.0,4.0,50,0.00,,,0.00,,2013-07-13 01:56:00,
2013-07-12 21:04:00,81.0,61.0,29.99,ESE,117,0.0,4.0,50,0.00,,,0.00,,2013-07-13 02:04:00,
2013-07-12 21:14:00,80.0,60.0,29.99,SE,125,0.0,4.0,50,0.00,,,0.00,,2013-07-13 02:14:00,
2013-07-12 21:24:00,80.0,59.0,29.99,East,96,0.0,5.0,49,0.00,,,0.00,,2013-07-13 02:24:00,
2013-07-12 21:36:00,80.0,59.0,29.99,East,96,0.0,5.0,49,0.00,,,0.00,,2013-07-13 02:36:00,
2013-07-12 21:46:00,79.0,59.0,29.99,SSE,157,0.0,3.0,50,0.00,,,0.00,,2013-07-13 02:46:00,
2013-07-12 21:53:00,79.0,59.0,29.99,SE,136,0.0,5.0,51,0.00,,,0.00,,2013-07-13 02:53:00,
2013-07-12 22:05:00,79.0,59.0,29.99,SE,136,0.0,5.0,51,0.00,,,0.00,,2013-07-13 03:05:00,
2013-07-12 22:13:00,78.0,59.0,30.00,ESE,121,0.0,5.0,52,0.00,,,0.00,,2013-07-13 03:13:00,
2013-07-12 22:26:00,78.0,60.0,30.01,ESE,122,0.0,7.0,54,0.00,,,0.00,,2013-07-13 03:26:00,
2013-07-12 22:36:00,78.0,60.0,30.01,ESE,122,0.0,7.0,54,0.00,,,0.00,,2013-07-13 03:36:00,
2013-07-12 23:01:00,77.0,60.0,30.01,SE,146,0.0,2.0,56,0.00,,,0.00,,2013-07-13 04:01:00,
2013-07-12 23:12:00,76.0,60.0,30.01,ESE,113,0.0,3.0,57,0.00,,,0.00,,2013-07-13 04:12:00,
2013-07-12 23:22:00,76.0,60.0,30.01,SE,142,0.0,2.0,58,0.00,,,0.00,,2013-07-13 04:22:00,
2013-07-12 23:32:00,76.0,60.0,30.01,SE,142,0.0,2.0,58,0.00,,,0.00,,2013-07-13 04:32:00,
2013-07-12 23:43:00,75.0,60.0,30.00,ESE,111,0.0,4.0,59,0.00,,,0.00,,2013-07-13 04:43:00,
2013-07-12 23:52:00,75.0,59.0,30.00,ESE,113,0.0,9.0,58,0.00,,,0.00,,2013-07-13 04:52:00,